This is the latest recevied weather packets stored in our database for station/object BG5HLN-13. If no packets are shown the sender has not sent any weather packets the latest 10 day(s).
| Time | Temp. | Humidity | Pressure | Rain* | Wind** | Luminosity | Snow |
|---|---|---|---|---|---|---|---|
| 1788503691 | 31.11° C | 84% | 1006.5 hPa | 0 mm | - | - | - |
| 1788503091 | 31.11° C | 84% | 1006.4 hPa | 0 mm | - | - | - |
| 1788502491 | 31.67° C | 83% | 1006.5 hPa | 0 mm | - | - | - |
| 1788501891 | 31.67° C | 82% | 1006.5 hPa | 0 mm | - | - | - |
| 1788501291 | 31.67° C | 82% | 1006.6 hPa | 0 mm | - | - | - |
| 1788500691 | 32.22° C | 82% | 1006.9 hPa | 0 mm | - | - | - |
| 1788500091 | 32.22° C | 80% | 1007 hPa | 0 mm | - | - | - |
| 1788499490 | 33.89° C | 76% | 1006.9 hPa | 0 mm | - | - | - |
| 1788498891 | 33.33° C | 76% | 1006.5 hPa | 0 mm | - | - | - |
| 1788498306 | 33.33° C | 75% | 1006.6 hPa | 0 mm | - | - | - |
| 1788497690 | 33.33° C | 76% | 1006.6 hPa | 0 mm | - | - | - |
| 1788497090 | 33.33° C | 75% | 1006.7 hPa | 0.76 mm | - | - | - |
| 1788496490 | 33.89° C | 74% | 1006.8 hPa | 1.52 mm | - | - | - |
| 1788495890 | 34.44° C | 73% | 1006.9 hPa | 1.52 mm | - | - | - |
| 1788495290 | 35° C | 73% | 1007 hPa | 1.52 mm | - | - | - |
| 1788494690 | 35° C | 75% | 1007.2 hPa | 1.52 mm | - | - | - |
| 1788494091 | 34.44° C | 75% | 1007.3 hPa | 1.52 mm | - | - | - |
| 1788493491 | 33.89° C | 75% | 1007.3 hPa | 0.51 mm | - | - | - |
| 1788492890 | 34.44° C | 76% | 1007.3 hPa | 0.25 mm | - | - | - |
| 1788492290 | 33.33° C | 76% | 1007.4 hPa | 0.25 mm | - | - | - |
| 1788491690 | 33.33° C | 77% | 1007.5 hPa | 0.25 mm | - | - | - |
| 1788491091 | 32.78° C | 78% | 1007.6 hPa | 0.76 mm | - | - | - |
| 1788490489 | 32.78° C | 76% | 1007.6 hPa | 0.76 mm | - | - | - |
| 1788489890 | 32.78° C | 76% | 1007.7 hPa | 0.76 mm | - | - | - |
| 1788489290 | 32.78° C | 77% | 1007.7 hPa | 0.51 mm | - | - | - |
* Rain latest hour (hover to see other rain measurements)
** Current wind speed in m/s (hover to see current wind gust speed)